Location: Amsterdam
(30.7274°N, 84.4357°W)
Time: 21:28:05
(UTC+00:00)

Tiros 1 despin weight - Pass Details

Date: 24 February 2026
Orbit: 556 x 593 km, 48.2° (Epoch: 9 March)

Event Time Altitude Azimuth Distance (km) Brightness Sun altitude
Rises 01:28:17 0° 304° (NW) 2,729 ? -25.7°
Reaches altitude 10° 01:30:36 10° 298° (WNW) 1,834 ? -26.2°
Enters shadow 01:34:14 43° 241° (WSW) 780 ? -27.0°
Maximum altitude 01:34:35 45° 226° (SW) 767 - -27.0°
Drops below altitude 10° 01:38:35 10° 153° (SSE) 1,837 - -27.9°
Sets 01:40:54 0° 147° (SSE) 2,736 - -28.4°
